Simultaneous Nadir Overpasses (SNOs) Predictions

Prediction of SNOs between AQUA and NOAA-19 Satellite Orbit:

Table of predicted SNOs for the next 14.0 days since TLE Epoch: 2/20/2015
Index Date (AQUA) Time (AQUA) Lat,Lon (AQUA) SZA (AQUA ) Date (NOAA-19) Time (NOAA-19) Lat,Lon (NOAA-19) SZA (NOAA-19 ) Distance(km) Time Diff (sec)
1 02/21/2015 23:48:03 -79.51, -23.96 88.74 02/21/2015 23:47:54 -79.51, -23.98 88.74 0.34 9
2 02/24/2015 04:32:20 -79.60, -95.64 89.42 02/24/2015 04:31:27 -79.60, -95.58 89.41 1.40 53
3 02/24/2015 05:21:42 79.42, 73.31 90.29 02/24/2015 05:22:27 79.42, 73.23 90.29 1.66 45
4 02/26/2015 10:05:59 79.52, 1.50 89.64 02/26/2015 10:06:00 79.53, 1.46 89.64 0.80 1
5 02/28/2015 14:50:14 79.58, -69.92 88.88 02/28/2015 14:49:31 79.57, -69.82 88.89 1.99 43
6 02/28/20
